EN

Hourly Weather Nowosolna

Today, 14 May, Friday

Time Temperature Precipitation Wind Pressure Humidity
00:00 +12°C° 0 mm 1 mps 728 mmHg 86%
01:00 +11°C° 0 mm 1 mps 728 mmHg 87%
02:00 +11°C° 0 mm 1 mps 728 mmHg 88%
03:00 +11°C° 0 mm 1 mps 728 mmHg 89%
04:00 +10°C° 0 mm 1 mps 728 mmHg 89%
05:00 +12°C° 0 mm 1 mps 728 mmHg 86%
06:00 +13°C° 0 mm 2 mps 728 mmHg 82%
07:00 +14°C° 0 mm 2 mps 728 mmHg 78%
08:00 +15°C° 0.2 mm 2 mps 729 mmHg 76%
09:00 +16°C° 0.2 mm 3 mps 729 mmHg 74%
10:00 +16°C° 0.2 mm 3 mps 729 mmHg 72%
11:00 +17°C° 0.5 mm 4 mps 730 mmHg 70%
12:00 +18°C° 0.5 mm 4 mps 730 mmHg 69%
13:00 +17°C° 0.5 mm 5 mps 730 mmHg 68%
14:00 +16°C° 0.7 mm 5 mps 730 mmHg 72%
15:00 +16°C° 0.7 mm 6 mps 731 mmHg 77%
16:00 +15°C° 0.7 mm 6 mps 731 mmHg 82%
17:00 +14°C° 0.1 mm 6 mps 731 mmHg 84%
18:00 +11°C° 0.1 mm 6 mps 732 mmHg 87%
19:00 +10°C° 0.1 mm 5 mps 732 mmHg 90%
20:00 +10°C° 0 mm 5 mps 732 mmHg 90%
21:00 +9°C° 0 mm 5 mps 733 mmHg 89%
22:00 +10°C° 0 mm 4 mps 733 mmHg 89%
23:00 +10°C° 0 mm 4 mps 733 mmHg 88%

Tomorrow, 15 May, Saturday

Time Temperature Precipitation Wind Pressure Humidity
00:00 +10°C° 0 mm 4 mps 733 mmHg 88%
01:00 +10°C° 0 mm 4 mps 733 mmHg 88%
02:00 +8°C° 0 mm 4 mps 733 mmHg 89%
03:00 +8°C° 0 mm 4 mps 734 mmHg 90%
04:00 +7°C° 0 mm 4 mps 734 mmHg 91%
05:00 +8°C° 0 mm 4 mps 734 mmHg 88%
06:00 +8°C° 0 mm 4 mps 734 mmHg 86%
07:00 +10°C° 0 mm 4 mps 734 mmHg 84%
08:00 +11°C° 0 mm 4 mps 735 mmHg 79%
09:00 +12°C° 0 mm 4 mps 735 mmHg 73%
10:00 +13°C° 0 mm 4 mps 735 mmHg 68%
11:00 +14°C° 0 mm 4 mps 735 mmHg 64%
12:00 +16°C° 0 mm 3 mps 735 mmHg 60%
13:00 +17°C° 0 mm 3 mps 735 mmHg 56%
14:00 +17°C° 0 mm 2 mps 734 mmHg 55%
15:00 +19°C° 0 mm 1 mps 734 mmHg 54%
16:00 +19°C° 0 mm 1 mps 734 mmHg 52%
17:00 +18°C° 0 mm 1 mps 734 mmHg 59%
18:00 +15°C° 0 mm 2 mps 734 mmHg 65%
19:00 +14°C° 0 mm 2 mps 733 mmHg 71%
20:00 +12°C° 0.1 mm 3 mps 733 mmHg 75%
21:00 +12°C° 0.1 mm 3 mps 733 mmHg 79%
22:00 +11°C° 0.1 mm 3 mps 733 mmHg 83%
23:00 +11°C° 0.2 mm 3 mps 733 mmHg 86%

Day after tomorrow, 16 May, Sunday

Time Temperature Precipitation Wind Pressure Humidity
00:00 +10°C° 0.2 mm 3 mps 733 mmHg 89%
01:00 +10°C° 0.2 mm 3 mps 733 mmHg 92%
02:00 +10°C° 0.2 mm 3 mps 732 mmHg 93%
03:00 +10°C° 0.2 mm 3 mps 732 mmHg 94%
04:00 +10°C° 0.2 mm 3 mps 732 mmHg 95%
05:00 +11°C° 0.1 mm 4 mps 732 mmHg 92%
06:00 +12°C° 0.1 mm 4 mps 732 mmHg 89%
07:00 +13°C° 0.1 mm 4 mps 732 mmHg 86%
08:00 +13°C° 0.1 mm 4 mps 732 mmHg 83%
09:00 +13°C° 0.1 mm 5 mps 732 mmHg 80%
10:00 +14°C° 0.1 mm 5 mps 732 mmHg 76%
11:00 +13°C° 0.2 mm 4 mps 733 mmHg 79%
12:00 +13°C° 0.2 mm 4 mps 733 mmHg 81%
13:00 +12°C° 0.2 mm 3 mps 733 mmHg 84%
14:00 +12°C° 0.3 mm 3 mps 733 mmHg 85%
15:00 +13°C° 0.3 mm 2 mps 733 mmHg 86%
16:00 +13°C° 0.3 mm 2 mps 733 mmHg 87%
17:00 +12°C° 0 mm 2 mps 732 mmHg 87%
18:00 +12°C° 0 mm 1 mps 732 mmHg 87%
19:00 +12°C° 0 mm 1 mps 732 mmHg 86%
20:00 +11°C° 0 mm 1 mps 732 mmHg 88%
21:00 +10°C° 0 mm 2 mps 732 mmHg 90%
22:00 +9°C° 0 mm 2 mps 733 mmHg 92%
23:00 +9°C° 0 mm 2 mps 733 mmHg 92%

17 May, Monday

Time Temperature Precipitation Wind Pressure Humidity
00:00 +9°C° 0 mm 2 mps 732 mmHg 92%
01:00 +8°C° 0 mm 2 mps 732 mmHg 92%
02:00 +8°C° 0 mm 2 mps 732 mmHg 93%
03:00 +8°C° 0 mm 2 mps 732 mmHg 93%
04:00 +7°C° 0 mm 3 mps 732 mmHg 94%
05:00 +9°C° 0.1 mm 3 mps 732 mmHg 90%
06:00 +10°C° 0.1 mm 3 mps 733 mmHg 86%
07:00 +12°C° 0.1 mm 3 mps 733 mmHg 82%
08:00 +13°C° 0.1 mm 4 mps 733 mmHg 75%
09:00 +14°C° 0.1 mm 4 mps 733 mmHg 69%
10:00 +16°C° 0.1 mm 5 mps 733 mmHg 63%
11:00 +16°C° 0.1 mm 5 mps 733 mmHg 60%
12:00 +17°C° 0.1 mm 5 mps 733 mmHg 56%
13:00 +17°C° 0.1 mm 5 mps 733 mmHg 53%
14:00 +16°C° 0.2 mm 5 mps 733 mmHg 60%
15:00 +15°C° 0.2 mm 5 mps 733 mmHg 68%
16:00 +14°C° 0.2 mm 5 mps 733 mmHg 75%
17:00 +13°C° 0.4 mm 4 mps 733 mmHg 80%
18:00 +12°C° 0.4 mm 3 mps 733 mmHg 84%
19:00 +11°C° 0.4 mm 3 mps 733 mmHg 88%
20:00 +10°C° 0 mm 3 mps 734 mmHg 90%
21:00 +9°C° 0 mm 3 mps 734 mmHg 92%
22:00 +8°C° 0 mm 3 mps 734 mmHg 94%
23:00 +8°C° 0 mm 3 mps 734 mmHg 94%

18 May, Tuesday

Time Temperature Precipitation Wind Pressure Humidity
00:00 +7°C° 0 mm 3 mps 734 mmHg 94%
01:00 +7°C° 0 mm 3 mps 734 mmHg 94%
02:00 +7°C° 0 mm 3 mps 734 mmHg 95%
03:00 +7°C° 0 mm 3 mps 735 mmHg 95%
04:00 +5°C° 0 mm 3 mps 735 mmHg 95%
05:00 +7°C° 0 mm 3 mps 735 mmHg 93%
06:00 +8°C° 0 mm 3 mps 735 mmHg 90%
07:00 +9°C° 0 mm 3 mps 735 mmHg 87%
08:00 +10°C° 0 mm 4 mps 736 mmHg 84%
09:00 +10°C° 0 mm 4 mps 736 mmHg 82%
10:00 +11°C° 0 mm 4 mps 736 mmHg 79%
11:00 +12°C° 0.2 mm 4 mps 736 mmHg 73%
12:00 +13°C° 0.2 mm 4 mps 736 mmHg 68%
13:00 +14°C° 0.2 mm 4 mps 736 mmHg 62%
14:00 +14°C° 0.2 mm 4 mps 736 mmHg 65%
15:00 +13°C° 0.2 mm 4 mps 736 mmHg 69%
16:00 +13°C° 0.2 mm 4 mps 737 mmHg 72%
17:00 +12°C° 0.1 mm 4 mps 737 mmHg 77%
18:00 +11°C° 0.1 mm 3 mps 737 mmHg 81%
19:00 +10°C° 0.1 mm 3 mps 737 mmHg 85%
20:00 +10°C° 0 mm 3 mps 737 mmHg 88%
21:00 +9°C° 0 mm 3 mps 737 mmHg 91%
22:00 +7°C° 0 mm 4 mps 738 mmHg 93%
23:00 +7°C° 0 mm 4 mps 738 mmHg 94%

19 May, Wednesday

Time Temperature Precipitation Wind Pressure Humidity
00:00 +6°C° 0 mm 4 mps 738 mmHg 95%
01:00 +5°C° 0 mm 4 mps 738 mmHg 96%
02:00 +5°C° 0 mm 4 mps 738 mmHg 97%
03:00 +7°C° 0 mm 3 mps 738 mmHg 97%
04:00 +7°C° 0 mm 3 mps 738 mmHg 97%
05:00 +6°C° 0 mm 4 mps 738 mmHg 93%
06:00 +7°C° 0 mm 4 mps 738 mmHg 89%
07:00 +8°C° 0 mm 4 mps 738 mmHg 85%
08:00 +11°C° 0 mm 4 mps 738 mmHg 78%
09:00 +12°C° 0 mm 5 mps 738 mmHg 71%
10:00 +13°C° 0 mm 5 mps 738 mmHg 64%
11:00 +14°C° 0 mm 5 mps 737 mmHg 59%
12:00 +15°C° 0 mm 5 mps 737 mmHg 55%
13:00 +15°C° 0 mm 5 mps 737 mmHg 51%
14:00 +15°C° 0.1 mm 5 mps 736 mmHg 55%
15:00 +15°C° 0.1 mm 5 mps 736 mmHg 59%
16:00 +14°C° 0.1 mm 5 mps 736 mmHg 63%
17:00 +13°C° 0.5 mm 4 mps 736 mmHg 73%
18:00 +11°C° 0.5 mm 3 mps 736 mmHg 83%
19:00 +9°C° 0.5 mm 3 mps 736 mmHg 93%
20:00 +9°C° 0 mm 3 mps 736 mmHg 94%
21:00 +8°C° 0 mm 3 mps 736 mmHg 95%
22:00 +7°C° 0 mm 3 mps 736 mmHg 96%
23:00 +7°C° 0 mm 3 mps 736 mmHg 95%
Show more

We Need Your Consent

Meteoprog and our Service Providers may store and access personal data such as cookies, device identifiers or other similar technologies on your device and process such data to personalise content and ads, as well as provide social media features and to analyse the traffic.

  • Store and/or access information on your device

    Cookies, device identifiers or other information can be stored or accessed on your device for the purposes indicated above.

  • Personalised ads and content, ad and content measurement, audience insights, and products development

    Ads and content can be personalised based on a profile. More data can be added to better personalise ads and content. Ad and content performance can be measured. Insights about the audience who saw the ads and content can be derived. Such data can be used to develop or improve user’s experience, systems and software.

By clicking ‘I Agree’ you will allow the use of indicated cookies, device identifiers, web beacons or other similar technologies. Your settings can be changed in the browser on your device.

For certain purposes, legitimate interests may be relied on, rather than consent. You can read more about this in our Privacy and Cookie Policy.